This is the latest recevied weather packets stored in our database for station/object IK2ILW-4. If no packets are shown the sender has not sent any weather packets the latest 10 day(s).
| Time | Temp. | Humidity | Pressure | Rain* | Wind** | Luminosity | Snow |
|---|---|---|---|---|---|---|---|
| 1777900059 | 13.89° C | 54% | 1019.7 hPa | 0 mm | - | 323 W/m² | - |
| 1777899759 | 14.44° C | 53% | 1019.7 hPa | 0 mm | - | 315 W/m² | - |
| 1777899459 | 13.89° C | 56% | 1019.6 hPa | 0 mm | - | 339 W/m² | - |
| 1777899161 | 13.89° C | 55% | 1019.6 hPa | 0 mm | - | 338 W/m² | - |
| 1777898857 | 13.89° C | 55% | 1019.6 hPa | 0 mm | - | 403 W/m² | - |
| 1777898573 | 14.44° C | 56% | 1019.7 hPa | 0 mm | - | 408 W/m² | - |
| 1777898270 | 13.89° C | 54% | 1019.7 hPa | 0 mm | - | 378 W/m² | - |
| 1777897970 | 13.89° C | 56% | 1019.7 hPa | 0 mm | - | 362 W/m² | - |
| 1777897669 | 13.33° C | 57% | 1019.6 hPa | 0 mm | - | 380 W/m² | - |
| 1777897368 | 13.33° C | 55% | 1019.6 hPa | 0 mm | - | 390 W/m² | - |
| 1777897064 | 13.89° C | 55% | 1019.6 hPa | 0 mm | - | 418 W/m² | - |
| 1777896768 | 14.44° C | 54% | 1019.6 hPa | 0 mm | - | 429 W/m² | - |
| 1777896467 | 14.44° C | 53% | 1019.6 hPa | 0 mm | - | 401 W/m² | - |
| 1777896165 | 14.44° C | 49% | 1019.6 hPa | 0 mm | - | 483 W/m² | - |
| 1777895861 | 14.44° C | 53% | 1019.6 hPa | 0 mm | - | 499 W/m² | - |
| 1777895557 | 13.89° C | 53% | 1019.6 hPa | 0 mm | - | 424 W/m² | - |
| 1777895254 | 13.89° C | 54% | 1019.6 hPa | 0 mm | - | 404 W/m² | - |
| 1777894955 | 14.44° C | 53% | 1019.7 hPa | 0 mm | - | 875 W/m² | - |
| 1777894655 | 14.44° C | 55% | 1019.7 hPa | 0 mm | - | 613 W/m² | - |
| 1777894354 | 13.89° C | 56% | 1019.7 hPa | 0 mm | - | 473 W/m² | - |
| 1777894051 | 13.89° C | 57% | 1019.8 hPa | 0 mm | - | 387 W/m² | - |
| 1777893770 | 13.33° C | 57% | 1019.8 hPa | 0 mm | - | 364 W/m² | - |
| 1777893465 | 13.33° C | 56% | 1019.8 hPa | 0 mm | - | 341 W/m² | - |
| 1777893161 | 13.89° C | 56% | 1019.8 hPa | 0 mm | - | 336 W/m² | - |
| 1777892857 | 13.89° C | 56% | 1019.8 hPa | 0 mm | - | 348 W/m² | - |
* Rain since midnight (hover to see other rain measurements)
** Current wind speed in m/s (hover to see current wind gust speed)